Regional Weather Roundup
Issued by NWS Grand Forks, ND

Home | Current Version | Previous Version | Graphics & Text | Print | Product List | Glossary On
Versions: 1 2 3 4 5 6 7 8 9 10 11 12 13 14 15 16 17 18 19 20 21 22 23 24 25 26 27 28 29 30 31 32 33 34 35 36 37 38 39 40 41 42 43 44 45 46 47 48 49 50
000
ASUS43 KFGF 031531
RWRFGF
PRAIRIE TO PINES  WEATHER ROUNDUP
NATIONAL WEATHER SERVICE EASTERN NORTH DAKOTA/GRAND FORKS ND
1000 AM CDT WED JUN 03 2015

 **SATELLITE DATA USED TO AUGMENT SKY COVER AT AUTOMATED STATIONS**
 *****  WEATHER ACROSS EASTERN NORTH DAKOTA  *****

CITY           SKY/WX    TMP DP  RH WIND       PRES   REMARKS
GRAND FORKS    CLOUDY    54  48  80 N18       29.82S
GRAND FRKS AFB CLOUDY    53  46  77 N14       29.84R
GRAND FRKS NWS   N/A     54 N/A N/A N13         N/A
DEVILS LAKE    CLOUDY    54  39  58 N12G21    29.91R
FARGO          CLOUDY    59  55  87 NW15      29.79R
WAHPETON ARPT  CLOUDY    61  57  88 NW12      29.80S
$$

 ***** WEATHER ACROSS CENTRAL AND WESTERN NORTH DAKOTA  *****

CITY           SKY/WX    TMP DP  RH WIND       PRES   REMARKS
BISMARCK       CLOUDY    53  43  68 N14G21    29.99R
MINOT          CLOUDY    53  43  68 N12       30.00R
JAMESTOWN      CLOUDY    53  48  83 N17G25    29.88S
MINOT AFB      CLOUDY    53  49  86 N12       30.00R
GARRISON         N/A     56  41  57 NE15      29.99S
WILLISTON      SUNNY     58  46  64 VRB5      30.03S
DICKINSON      CLOUDY    52  44  74 NE10      30.02R
HETTINGER      CLOUDY    54  47  77 N14       30.03R
$$

 *****  OTHER AIRPORT OBSERVATIONS IN OUR AREA  *****

CITY           SKY/WX    TMP DP  RH WIND       PRES   REMARKS
WALHALLA       LGT RAIN  50  46  87 MISG      29.93R
GRAFTON AIRPOR CLOUDY    52  48  87 N14G20    29.87R
VALLEY CITY AR CLOUDY    52  52 100 NW15      29.86S
CANDO          CLOUDY    54  41  62 N21       29.94R
CAVALIER APRT  LGT RAIN  54  45  71 N14       29.90S
GWINNER        NOT AVBL
SHEYENNE NWR     N/A     58  57  97 NW9       29.95S
ROLLA          CLOUDY    50  45  81 N20       29.98R
 ***** THE ABOVE OBSERVATIONS ARE NON NWS ARE NOT QUALITY
       CONTROLLED AND MAY MIS-REPORT RAIN FOR SNOW...
$$

  *****  WEATHER ACROSS NORTHERN MINNESOTA  *****

CITY           SKY/WX    TMP DP  RH WIND       PRES   REMARKS
FLAG ISLAND    CLOUDY    61  55  82 NE10      29.85F
WARROAD        CLOUDY    57  54  88 NE12      29.86R FOG
ROSEAU         CLOUDY    59  54  82 NE15      29.85S
HALLOCK        CLOUDY    57  52  82 N14       29.84F
THF RVR FALLS  CLOUDY    63  59  88 NE8       29.81R
BAUDETTE       CLOUDY    63  59  87 NE6       29.83S
WASKISH        PTSUNNY   66  63  88 E7        29.81S
CROOKSTON      CLOUDY    64  61  88 NE8       29.80S
STEPHEN NDAWN    N/A     57  55  94 N12         N/A
GREENBUSH NDAW   N/A     59  59 100 NE12        N/A
$$
  *****  WEATHER ACROSS CENTRAL AND WEST MINNESOTA  *****

CITY           SKY/WX    TMP DP  RH WIND       PRES   REMARKS
FOSSTON        CLOUDY    64  64 100 CALM      29.79S
BEMIDJI        CLOUDY    60  59  97 E5        29.80S FOG
PARK RAPIDS    CLOUDY    65  58  78 S12       29.79S
ELBOW LAKE     CLOUDY    61  61  99 NW9       29.81R FOG
WADENA         CLOUDY    64  59  82 S7        29.80S
DETROIT LAKES  CLOUDY    61  61 100 SW6       29.80R FOG
MOORHEAD       CLOUDY    59  55  88 W13       29.80R
FERGUS FALLS   FOG       61  61 100 W12       29.80S VSB 1
MORRIS MN      RAIN      64  63  94 CALM      29.80R
STAPLES        CLOUDY    64  57  77 S9        29.81S
$$
  *****  WEATHER ELSEWHERE ACROSS MINNESOTA  *****

CITY           SKY/WX    TMP DP  RH WIND       PRES   REMARKS
DULUTH         CLOUDY    59  52  77 E8        29.87F
INTRNTL FALLS  CLOUDY    63  58  83 CALM      29.84S
ELY            CLOUDY    63  55  77 S7        29.87S
CLOQUET        CLOUDY    57  54  88 CALM      29.86S
WHEATON        CLOUDY    63  59  88 NW14G23   29.82R
BRAINERD       CLOUDY    65  58  78 S12       29.82R
HIBBING        CLOUDY    59  56  89 E6        29.86R
ALEXANDRIA     CLOUDY    66  60  81 S8        29.82R
SAINT CLOUD    CLOUDY    65  58  78 S13       29.82S
MINNEAPOLIS    CLOUDY    65  59  81 SE10      29.85S
$$

  *****  WEATHER ACROSS SOUTH DAKOTA  *****

CITY           SKY/WX    TMP DP  RH WIND       PRES   REMARKS
SIOUX FALLS    CLOUDY    66  64  93 SW5       29.82F
BROOKINGS      CLOUDY    66  61  82 N21       29.78S
WATERTOWN      LGT RAIN  62  60  93 NW3       29.84R FOG
HURON          CLOUDY    65  60  84 NW16      29.82S
SISSETON         N/A     67  63  87 NW17      29.79R
ABERDEEN       CLOUDY    66  60  81 NW14      29.84S
MITCHELL       CLOUDY    70  63  78 NW14      29.85R
PIERRE         CLOUDY    61  56  83 NW16      29.93R
MOBRIDGE       CLOUDY    57  52  83 N14       29.92R
RAPID CITY     CLOUDY    56  52  86 N16       30.03R
$$

  *****  SOME WEATHER IN NEARBY STATES *****

CITY           SKY/WX    TMP DP  RH WIND       PRES   REMARKS
GLASGOW MT     MOSUNNY   59  51  75 SE17      30.01R
GREAT FALLS MT CLOUDY    54  47  77 SW8       29.98S
CHEYENNE WY    CLOUDY    55  49  80 CALM      30.12F
SCOTTSBLUFF NE SUNNY     64  53  67 NW6       30.03S
OMAHA NE       CLOUDY    66  63  90 S10       29.77F
DES MOINES IA  CLOUDY    64  61  90 S10       29.89F
DAVENPORT IA   MOSUNNY   70  57  63 S17       30.02S
CHICAGO IL     MOSUNNY   65  52  62 S5        30.07S
EAU CLAIRE WI  CLOUDY    67  54  63 S16G23    29.91F
LA CROSSE WI   CLOUDY    70  55  59 S16       29.94F
$$

  *****  SOME NATIONAL WEATHER *****

CITY           SKY/WX    TMP DP  RH WIND       PRES   REMARKS
LA GUARDIA NY  PTSUNNY   61  49  64 E9        30.24S
RALEIGH NC     CLOUDY    65  62  90 NE9       30.09R FOG
ATLANTA GA     PTSUNNY   71  64  78 E8        30.00S
NEW ORLEANS LA MOSUNNY   83  69  62 NE6       29.95S
OKLAHOMA CITY  MOSUNNY   79  65  62 S18       29.93R
ALBUQUERQUE NM MOSUNNY   72  25  17 VRB3      30.10S
SALT LAKE CITY PTSUNNY   66  50  56 CALM      29.91S
LOS ANGELES CA CLOUDY    62  56  80 E7        29.94S
BOISE ID       CLOUDY    57  49  74 NW8       29.99S
SEATTLE WA     CLOUDY    55  48  76 S8        30.08S
$$

*** WEATHER ACROSS MANITOBA...SASKATCHEWAN AND ONTARIO ***
                ***ONTARIO***

CITY           SKY/WX    TMP DP  RH WIND       PRES   REMARKS
GERALDTON      LGT RAIN  50  50 100 S6        29.92S
THUNDER BAY    PTSUNNY   52  46  82 NE8       29.92S
SIOUX LOOKOUT  CLOUDY    59  55  88 N3        29.90R
TORONTO        MOSUNNY   63  43  48 E9        30.22F
BIG TROUT LK   SUNNY     54  37  54 W13G18    29.89F
PICKLE LAKE    PTSUNNY   61  34  36 N6        29.91S
DRYDEN         CLOUDY    57  55  94 NE9       29.90R
KENORA         CLOUDY    57  55  94 N8        29.90R
$$
                *** MANITOBA***

CITY           SKY/WX    TMP DP  RH WIND       PRES   REMARKS
BRANDON        CLOUDY    55  39  54 NE14      30.02R
DAUPHIN        SUNNY     63  32  31 E10       30.04R
ISLAND LAKE    MOSUNNY   52  37  58 W7        30.00R
PILOT MOUND      N/A     52  41  66 N13G20      N/A
THE PAS        MOSUNNY   55  32  41 N7        30.10R
THOMPSON       MOSUNNY   50  36  57 NW9       30.06R
WINNIPEG       PTSUNNY   59  37  44 NE24G30   29.93F
LYNN LAKE      SUNNY     45  32  61 N6        30.10S
CHURCHILL      CLOUDY    36  34  93 N15G23    29.97R
GILLAM         PTSUNNY   45  37  76 NW13G20   30.00R
$$
                ***SASKATCHEWAN***

CITY           SKY/WX    TMP DP  RH WIND       PRES   REMARKS
ESTEVAN        MOSUNNY   55  45  67 E8        30.05R
KINDERSLEY     CLOUDY    61  32  33 SE14      29.99S
LLOYDMINSTER   CLOUDY    55  36  47 SE8       30.00S
PRINCE ALBERT  MOSUNNY   61  37  41 SE7       30.06
REGINA         PTSUNNY   61  39  44 S13G20    30.04S
YORKTON        SUNNY     57  39  51 E5        30.06S
N. BATTLEFORD  SUNNY     57  37  47 SE9       30.05S
LA RONGE       PTSUNNY   57  28  33 SE9       30.10R
SASKATOON      PTSUNNY   61  30  31 E8        30.05S
SWIFT CURRENT  CLOUDY    52  43  71 SE12      30.00S
$$
NOTE: THESE ARE AUTOMATED STATIONS WITH LIMITED QUALITY CONTROL
      "FAIR" INDICATES FEW OR NO CLOUDS BELOW 12,000 FEET WITH NO
      SIGNIFICANT WEATHER AND/OR OBSTRUCTIONS TO VISIBILITY.
      SKY/WX - SKY CONDITION AND SIGNIFICANT WEATHER.
      TMP - AIR TEMPERATURE.    DP   - DEWPOINT TEMPERATURE.
      RH  - RELATIVE HUMIDITY.  PRES - PRESSURE.
      HX  - HEAT INDEX.         WCI  - WIND CHILL INDEX.
$


USA.gov is the U.S. government's official web portal to all federal, state and local government web resources and services.